Regional Weather Roundup
Issued by NWS

Home | Current Version | Previous Version | Text Only | Print | Product List | Glossary Off
Versions: 1 2 3 4 5 6 7 8 9 10 11 12 13 14 15 16 17 18 19 20 21 22 23 24 25 26 27 28 29 30 31 32 33 34 35 36 37 38 39 40 41 42 43 44 45 46 47 48 49 50

000
ASUS45 KBOU 210907
RWRCO

WEATHER ROUNDUP FOR COLORADO
NATIONAL WEATHER SERVICE DENVER/BOULDER CO
300 AM MDT THU AUG 21 2014

NOTE: "FAIR" INDICATES FEW OR NO CLOUDS BELOW 12000 FEET WITH NO
SIGNIFICANT WEATHER AND/OR OBSTRUCTIONS TO VISIBILITY.

COZ001>005-013-030-031-211000-
...NORTHWEST COLORADO...

CITY           SKY/WX    TMP DP  RH WIND       PRES   REMARKS
CRAIG          CLOUDY    55  52  89 CALM      30.18R
HAYDEN         MOCLDY    52  46  82 CALM      30.20R
MEEKER         CLOUDY    55  52  89 CALM      30.20R
MOUNT WERNER   NOT AVBL
STEAMBOAT SPGS MOCLDY    48  46  92 N3        30.21R
WALDEN         PTCLDY    43  41  93 E5        30.25S
$$

COZ006>008-011-211000-
...WEST CENTRAL VALLEYS...

CITY           SKY/WX    TMP DP  RH WIND       PRES   REMARKS
GRAND JUNCTION PTCLDY    56  52  86 E3        30.10S
MONTROSE       CLEAR     56  49  77 SE5       30.18S
EAGLE          MOCLDY    52  50  93 CALM      30.24R
RIFLE          PTCLDY    58  53  84 CALM      30.15R
DELTA          CLEAR     61  48  62 N5        30.13S
NUCLA          CLEAR     55  46  71 E6        30.22R
$$

COZ017>023-064>068-211000-
...SOUTHWEST COLORADO...

CITY           SKY/WX    TMP DP  RH WIND       PRES   REMARKS
DURANGO        CLEAR     51  41  68 CALM      30.19S
CORTEZ         CLEAR     51  45  79 NE7       30.19R
PAGOSA SPRINGS CLEAR     48  40  73 CALM      30.26S
TELLURIDE      PTCLDY    48  43  81 E5        30.37F
WOLF CREEK PAS NOT AVBL
$$

COZ009-010-012-014-032>034-037-058>063-211000-
...CENTRAL COLORADO...

CITY           SKY/WX    TMP DP  RH WIND       PRES   REMARKS
ASPEN          PTCLDY    49  44  83 SW7       30.27S
BUENA VISTA    PTCLDY    58  40  51 NW12      30.24F
COPPER MTN     MOCLDY    46  36  66 S13       30.50F
BERTHOUD PASS  FAIR      36  36 100 W16G28    30.52S
COTTONWOOD PAS PTCLDY    55  36  47 W20G26    30.35F
GUNNISON       CLEAR     46  36  66 CALM      30.31R
KREMMLING      MOCLDY    50  46  87 CALM      30.25S
LEADVILLE      CLEAR     42  37  82 NE3       30.36F
MONARCH PASS   CLEAR     41  34  75 W21       30.60F
SALIDA         MOCLDY    62  40  43 SW9       30.29S
SUNLIGHT       PTCLDY    43  41  93 CALM      30.45S
WILKERSON PASS MOCLDY    46  37  71 W5        30.48S
$$

COZ069>075-211000-
...SAN LUIS VALLEY/SANGRE DE CRISTO MOUNTAINS...

CITY           SKY/WX    TMP DP  RH WIND       PRES   REMARKS
ALAMOSA        PTCLDY    47  41  80 CALM      30.23R
LA VETA PASS   NOT AVBL
SAGUACHE       CLEAR     55  41  58 N13G18    30.26S
$$

COZ035-036-038>040-211000-
...NORTHERN COLORADO FRONT RANGE...

CITY           SKY/WX    TMP DP  RH WIND       PRES   REMARKS
DENVER INTL AP MOCLDY    63  57  81 W6        30.05F
DMNS CITY PARK   N/A     62  56  81 S1        30.05S
AURORA         MOCLDY    62  56  81 SW2       30.08S
FRONT RANGE AP NOT AVBL
ERIE MUNI ARPT PTCLDY    62  56  81 CALM      30.03F
BOULDER MUN AP PTCLDY    61  54  77 CALM      30.03F
CENTENNIAL     PTCLDY    62  52  69 W6        30.08F
BROOMFIELD     PTCLDY    61  55  82 S3        30.07S
FORT COLLINS   MOCLDY    61  52  72 SE8       30.03F
LONGMONT       MOCLDY    62  55  78 SW3       30.04S
$$

COZ041-046-047-076>085-087-088-211000-
...PIKES PEAK/PALMER DIVIDE AND SOUTHERN FOOTHILLS...

CITY           SKY/WX    TMP DP  RH WIND       PRES   REMARKS
COLO. SPRINGS  PTCLDY    64  49  57 NW15      30.10S
A. F. ACADEMY  PTCLDY    58  48  71 N12       30.12F
ELLICOTT       MOCLDY    61  55  81 N6        30.06S
FALCON         PTCLDY    59  49  68 N10       30.14S
FORT CARSON    PTCLDY    64  50  59 N12       30.06S
LIMON          MOCLDY    60  57  89 NW6       30.01F
MONUMENT HILL  PTCLDY    52  48  87 W6        30.15S
TRINIDAD       MOCLDY    63  45  51 NW7       30.05R
$$

COZ042>045-048>051-090-091-211000-
...NORTHEAST COLORADO...

CITY           SKY/WX    TMP DP  RH WIND       PRES   REMARKS
GREELEY ARPT   MOCLDY    63  54  72 W3        30.01F
AKRON          CLOUDY    64  58  80 NW6       29.98F
BURLINGTON     CLEAR     65  55  70 NW9       29.93R
WRAY             N/A     72  58  62 NW14      29.90S
STERLING       MOCLDY    68  63  83 S3        29.95R
HOLYOKE        NOT AVBL
FORT MORGAN    MOCLDY    64  55  75 NW6       29.98F
$$

COZ086-089-092>099-211000-
...SOUTHEAST COLORADO...

CITY           SKY/WX    TMP DP  RH WIND       PRES   REMARKS
PUEBLO         PTCLDY    69  52  54 N13       29.98R
LA JUNTA       CLEAR     71  55  56 N13       29.92R
LAMAR          CLEAR     68  55  63 NW8       29.86R
SPRINGFIELD      N/A     71  59  65 S17       29.92S
$$


USA.gov is the U.S. government's official web portal to all federal, state and local government web resources and services.